Location: *
(48.8489°N, 2.3218°E)
Time: 16:58:37
(UTC+00:00)

Shenzhou-11 Module - Pass Details

Date: 23 August 2019
Orbit: 317 x 328 km, 42.8° (Epoch: 20 September)

Event Time Altitude Azimuth Distance (km) Brightness Sun altitude
Rises 20:43:18 0° 253° (WSW) 2,070 6.2 -16.7°
Reaches altitude 10° 20:45:31 10° 238° (WSW) 1,234 4.8 -17.0°
Enters shadow 20:46:41 18° 217° (SW) 887 3.8 -17.2°
